Regional Weather Roundup
Issued by NWS

Home | Current Version | Previous Version | Text Only | Print | Product List | Glossary Off
Versions: 1 2 3 4 5 6 7 8 9 10 11 12 13 14 15 16 17 18 19 20 21 22 23 24 25 26 27 28 29 30 31 32 33 34 35 36 37 38 39 40 41 42 43 44 45 46 47 48 49 50

000
ASUS43 KOAX 172302
RWRNE

WEATHER ROUNDUP FOR NEBRASKA
NATIONAL WEATHER SERVICE OMAHA NE
600 PM CDT WED SEP 17 2014

NOTES: SATELLITE DATA IS BEING USED TO AUGMENT CLOUD COVER ABOVE
       12000 FEET.
       "FAIR" INDICATES FEW OR NO CLOUDS BELOW 12,000 FEET WITH NO
       SIGNIFICANT WEATHER AND/OR OBSTRUCTIONS TO VISIBILITY.

  * THESE STATIONS DO NOT REPORT WEATHER SUCH AS RAIN...SNOW OR FOG.

NEZ001>004-019>022-054>056-180000-
NEBRASKA PANHANDLE

CITY           SKY/WX    TMP DP  RH WIND       PRES   REMARKS
SCOTTSBLUFF    MOSUNNY   88  41  19 NW7       29.93F
ALLIANCE       PTSUNNY   86  43  22 CALM      29.93F
CHADRON        PTSUNNY   82  55  39 E7        29.89F
KIMBALL        PTSUNNY   85  36  17 NW8       29.99S
SIDNEY         MOSUNNY   86  41  20 E8        29.95F
$$

NEZ057>060-069>072-079>082-180000-
SOUTHWEST NEBRASKA

CITY           SKY/WX    TMP DP  RH WIND       PRES   REMARKS
NORTH PLATTE   SUNNY     81  61  50 SE13      29.89S
IMPERIAL       SUNNY     88  53  30 SE8       29.89F
LEXINGTON      SUNNY     81  63  54 SE8       29.90S
MCCOOK         SUNNY     85  60  42 E13       29.88S
OGALLALA       SUNNY     87  53  30 SE5       29.89S
$$

NEZ005>010-023>029-035>040-094-180000-
NORTH CENTRAL NEBRASKA

CITY           SKY/WX    TMP DP  RH WIND       PRES   REMARKS
VALENTINE      PTSUNNY   78  52  40 NE10      29.93R
AINSWORTH      HAZE      75  57  54 E7        29.93S VSB 3/4
BROKEN BOW     SUNNY     82  60  47 SE8       29.91R
O`NEILL        MOSUNNY   74  62  64 E6        29.93R
ORD            MOSUNNY   79  60  52 SE8       29.89S
THEDFORD       SUNNY     87  44  22 E3        29.91S
$$

NEZ041-046>049-061>064-073>077-083>087-180000-
SOUTH CENTRAL NEBRASKA

CITY           SKY/WX    TMP DP  RH WIND       PRES   REMARKS
GRAND ISLAND   SUNNY     80  62  54 SE8       29.90S
AURORA         SUNNY     78  61  55 E7        29.90S
HASTINGS       SUNNY     78  62  57 SE9       29.90S
HEBRON         SUNNY     80  61  53 E6        29.89S
HOLDREGE       SUNNY     79  61  54 E9        29.90S
KEARNEY *      SUNNY     79  63  57 E9        29.91S
YORK           MOSUNNY   77  64  65 SE9       29.90S
$$

NEZ011>018-030>034-042>045-180000-
NORTHEAST NEBRASKA

CITY           SKY/WX    TMP DP  RH WIND       PRES   REMARKS
NORFOLK        SUNNY     79  60  52 E7        29.91R
ALBION         MOSUNNY   76  61  59 SE6       29.92R
BLAIR          SUNNY     78  61  55 E3        29.90S
COLUMBUS *     SUNNY     75  61  60 E6        29.92R
FREMONT        SUNNY     79  60  52 S3        29.90S
TEKAMAH        SUNNY     82  56  40 CALM      29.88F
WAYNE          SUNNY     80  58  47 E3        29.91S
$$

NEZ050>053-065>068-078-088>093-180000-
SOUTHEAST NEBRASKA

CITY           SKY/WX    TMP DP  RH WIND       PRES   REMARKS
LINCOLN        SUNNY     79  61  53 SE7       29.90S
OMAHA EPPLEY   MOSUNNY   79  60  52 E6        29.89S
BEATRICE       SUNNY     77  63  61 SE7       29.89S
FALLS CITY     SUNNY     77  64  64 SE6       29.89R
NEBRASKA CITY  SUNNY     77  55  45 SE5       29.90R
PLATTSMOUTH    SUNNY     77  58  51 CALM      29.90S
$$

NEZ044-045-051>053-067-180000-
OMAHA AREA

CITY           SKY/WX    TMP DP  RH WIND       PRES   REMARKS
OMAHA EPPLEY   MOSUNNY   79  60  52 E6        29.89S
BLAIR          SUNNY     78  61  55 E3        29.90S
FREMONT        SUNNY     79  60  52 S3        29.90S
MILLARD        SUNNY     79  63  58 S6        29.89S
OFFUTT AFB     SUNNY     78  65  64 E6        29.89S
PLATTSMOUTH    SUNNY     77  58  51 CALM      29.90S
WAHOO          FAIR      79  60  52 SE6       29.90S
$$



USA.gov is the U.S. government's official web portal to all federal, state and local government web resources and services.